Regional Weather Roundup
Issued by NWS

Home | Current Version | Previous Version | Graphics & Text | Print | Product List | Glossary On
Versions: 1 2 3 4 5 6 7 8 9 10 11 12 13 14 15 16 17 18 19 20 21 22 23 24 25 26 27 28 29 30 31 32 33 34 35 36 37 38 39 40 41 42 43 44 45 46 47 48 49 50
000
ASUS43 KMKX 271300
RWRWI

WISCONSIN REGIONAL WEATHER ROUNDUP
NATIONAL WEATHER SERVICE MILWAUKEE/SULLIVAN WI
700 AM CST THU NOV 27 2014

NOTE: "FAIR" INDICATES FEW OR NO CLOUDS BELOW 12,000 FEET WITH NO
SIGNIFICANT WEATHER AND/OR OBSTRUCTIONS TO VISIBILITY.

WIZ001-002-006>008-014>016-023>028-271400-
NORTHWEST WISCONSIN

CITY           SKY/WX    TMP DP  RH WIND       PRES   REMARKS
SUPERIOR ARPT  PTCLDY    -4 -10  75 W6        30.51R WCI -17
ASHLAND        CLEAR     -1  -5  82 W5        30.44R WCI -11
HAYWARD        CLEAR     -5 -10  79 CALM      30.41R
SIREN          CLEAR     -7 -10  83 NW3       30.47S
CUMBERLAND     CLEAR     -4  -8  84 N10       30.40F WCI -21
RICE LAKE      CLEAR     -2  -7  80 NW5       30.44R WCI -12
CHETEK         CLEAR     -2  -6  82 N3        30.42S
LADYSMITH      CLEAR     -1  -4  84 NW9       30.40R WCI -16
EAU CLAIRE     NOT AVBL
MENOMONIE      CLEAR      1  -6  74 NW8       30.45R WCI -13
NEW RICHMOND   PTCLDY    -1  -6  80 N7        30.46R WCI -15
OSCEOLA        CLEAR     -1  -6  81 N9        30.50S WCI -17
$$

WIZ003>005-009-010-017-018-271400-
NORTH CENTRAL WISCONSIN

CITY           SKY/WX    TMP DP  RH WIND       PRES   REMARKS
MANITOWISH WTR LGT SNOW  -1  -3  90 NW5       30.28S WCI -11
ARBOR VITAE    LGT SNOW   8   4  84 NW6       30.27S WCI  -2
WOODRUFF       LGT SNOW   8   4  84 NW6       30.27S WCI  -2
RHINELANDER    PTCLDY     3   0  87 NW5       30.27S WCI  -6
EAGLE RIVER    PTCLDY     3  -1  83 CALM      30.26R
LAND O LAKES   LGT SNOW   4   1  87 CALM      30.26S
PHILLIPS       CLEAR     -1  -4  86 NW3       30.32R
TOMAHAWK       FLURRIES   4   1  84 CALM      30.30R
MEDFORD        MOCLDY     5   1  81 NW8       30.31R WCI  -8
MERRILL        MOCLDY     8   4  82 N5        30.30R WCI   0
$$

WIZ029-030-035-036-043>047-271400-
CENTRAL WISCONSIN

CITY           SKY/WX    TMP DP  RH WIND       PRES   REMARKS
WAUSAU         CLOUDY    10   5  80 NW9       30.30R WCI  -3
MOSINEE        NOT AVBL
MARSHFIELD     CLOUDY    10   3  73 NW14      30.32R WCI  -6
STEVENS POINT  FLURRIES  12   8  85 NW7       30.30S WCI   1
WAUPACA        CLOUDY    18  12  77 NW9       30.30R WCI   7
WAUTOMA        NOT AVBL
WISC RAPIDS    LGT SNOW  13   6  74 NW13      30.34R WCI  -2
CAMP DOUGLAS   FLURRIES  16  14  93 NW10      30.34R WCI   3
$$

WIZ011>013-019>022-031-037>040-048>050-271400-
NORTHEAST WISCONSIN

CITY           SKY/WX    TMP DP  RH WIND       PRES   REMARKS
ANTIGO         PTCLDY     5   2  88 N8        30.26S WCI  -8
SHAWANO        CLOUDY    18  10  69 N9        30.30R WCI   7
OCONTO         CLOUDY    16   9  73 N10       30.30R WCI   3
STURGEON BAY   CLOUDY    18  10  73 N20       30.27R WCI   1
GREEN BAY      CLOUDY    19  12  74 N13       30.29R WCI   6
MANITOWOC      CLOUDY    19  18  93 N13       30.26R WCI   7
APPLETON       MOCLDY    18  16  93 NW8       30.28R WCI   7
CLINTONVILLE   CLOUDY    19  12  73 N6        30.29R WCI  11
OSHKOSH        CLOUDY    20  14  77 MISG      30.28R
$$

WIZ032>034-041-042-053>061-271400-
SOUTHWEST WISCONSIN

CITY           SKY/WX    TMP DP  RH WIND       PRES   REMARKS
LA CROSSE      CLEAR     10   2  69 N14       30.43R WCI  -6
SPARTA         CLOUDY    12   7  79 NW10      30.39R WCI  -1
VIROQUA        CLOUDY    15  11  84 NW14      30.34R WCI   1
BOSCOBEL       CLOUDY    20  12  71 N8        30.39R WCI  10
PRAIRIE DU CHI CLOUDY    19  12  75 W14       30.39R WCI   5
PLATTEVILLE    CLOUDY    23  19  83 W9        30.33R WCI  13
$$

WIZ056-057-062-063-064-067-068-271400-
SOUTH CENTRAL WISCONSIN

CITY           SKY/WX    TMP DP  RH WIND       PRES   REMARKS
REEDSBURG      FLURRIES  17  12  81 NW7       30.32R WCI   7
BARABOO/DELLS  FLURRIES  17  13  84 NW8       30.31R WCI   7
LONE ROCK      NOT AVBL
MINERAL POINT  FLURRIES  23  18  80 NW12      30.31R WCI  12
MADISON        MOCLDY    20  14  77 NW8       30.31R WCI  10
MIDDLETON      CLOUDY    22  15  75 N9        30.31R WCI  11
WATERTOWN      CLOUDY    20  18  91 NW6       30.28R WCI  13
MONROE         CLOUDY    23  21  93 NW8       30.29R WCI  14
JANESVILLE     FLURRIES  25  21  86 NW8       30.30R WCI  16
$$

WIZ051-052-058>065-066-070>072-271400-
SOUTHEAST WISCONSIN

CITY           SKY/WX    TMP DP  RH WIND       PRES   REMARKS
MILWAUKEE      MOCLDY    24  17  74 NW12      30.26R WCI  13
WAUKESHA       CLOUDY    19  18  93 NW12      30.27R WCI   7
MILWAUKEE/TIMM NOT AVBL
RACINE         CLOUDY    24  18  77 NW12      30.27R WCI  13
BURLINGTON     MOCLDY    20  17  88 NW12      30.27R WCI   8
KENOSHA        CLOUDY    23  18  81 NW10      30.26R WCI  12
FOND DU LAC    CLOUDY    20  15  81 NW14      30.28R WCI   7
SHEBOYGAN      CLOUDY    22  18  85 NW9       30.25R WCI  12
WEST BEND      CLOUDY    21  18  86 NW8       30.25R WCI  12
JUNEAU         PTCLDY    18  14  85 NW8G16    30.28R WCI   8
$$

LSZ147-162-271400-
LAKE SUPERIOR

STATION/POSITION TIME  TEMP    WIND        PRES    WAVE
                       AIR SEA DIR/SP/G            HT/PER
                 (UTC) (F)     (DEG/KT/KT) (MB)    (FT/S)
DEVILS ISLAND    1200    8     350/ 17/ 21 1032.2R
PORT WING        1200    7     330/ 12/ 16 1031.2S
SAXON HARBOR     1200   13     320/  8/ 11 1029.1
$$

LMZ867-665-643>646-271400-
LAKE MICHIGAN

STATION/POSITION TIME  TEMP    WIND        PRES    WAVE
                       AIR SEA DIR/SP/G            HT/PER
                 (UTC) (F)     (DEG/KT/KT) (MB)    (FT/S)
CHAMBERS ISLAND  1200   20     310/ 19/ 26 1024.7R
N MID LAKE BUOY  1150   25 42  340/ 23/ 29 1023.6R   5/ 6
NORTHPORT PIER   1206   22     330/ 22     1024.4R
SISTER BAY       1228          340/ 29/ 34   N/A
KEWAUNEE LAKESHO 1200   21     330/ 11/ 17 1023.3R
SHEBOYGAN LAKESH 1200   24 35  320/ 12/ 14 1025.3R
PORT WASHINGTON  1200   24     300/  8/ 12 1025.1
MILWAUKEE LAKESH 1200   24     310/  9/ 14   N/A
S MID LAKE BUOY  1150   31 42  310/ 17/ 19 1023.5R   4/ 5
KENOSHA   LAKESH 1200   23     310/  9/ 13 1024.0R
$$

TC  - TEMPERATURE IN CELSIUS
VSB - VISIBILITY IN STATUTE MILES
WCI - WIND CHILL INDEX
HX  - HEAT INDEX



USA.gov is the U.S. government's official web portal to all federal, state and local government web resources and services.